Location: La Vergne
(36.0160°N, 86.5820°W)
Time: 06:07:05
(UTC-05:00)

Daily predictions for brighter satellites

Satellite Brightness Start Highest point End
(mag) Time Altitude Azimuth Time Altitude Azimuth Time Altitude Azimuth
Resurs 01 Rocket 1.8 20:19:17 10° S 20:23:42 81° WSW 20:28:08 10° NNW
Okean 2 4.3 20:24:44 10° SSE 20:28:18 30° E 20:31:53 10° NNE
Nadezhda 1 Rocket 4.1 20:22:55 10° S 20:29:09 61° E 20:35:27 10° NNE
Envisat 3.2 20:30:47 10° SSE 20:35:44 57° ENE 20:40:43 10° N
OAO 2 Rocket 3.4 20:34:38 10° W 20:39:29 61° SSW 20:44:10 11° ESE
Meteor 2-13 Rocket 4.5 20:33:57 10° N 20:40:03 86° E 20:46:09 10° S
Cosmos 2056 Rocket 4.0 20:35:19 10° N 20:40:12 42° ENE 20:44:53 11° SE
ISS -0.3 20:41:17 10° NW 20:42:05 11° NNW 20:42:54 10° N
Cosmos 1238 Rocket 4.1 20:36:58 10° S 20:43:42 78° E 20:50:01 10° N
Meteor 2-4 Rocket 3.9 20:38:15 10° S 20:43:55 84° W 20:49:48 10° N
GPS 2-04 Rocket1 3.9 20:44:46 10° SSW 20:47:12 18° SSE 20:48:46 14° ESE
Spot 1 4.1 20:44:17 10° SSE 20:48:39 63° ENE 20:52:49 10° N
Cosmos 1892 Rocket 4.3 20:45:47 10° SSE 20:49:46 34° E 20:53:45 10° NNE
Cosmos 1437 Rocket 3.3 20:46:35 10° N 20:50:17 41° ENE 20:53:29 13° SSE
Cosmos 1980 Rocket 4.3 20:49:19 10° NNE 20:51:31 12° NE 20:53:41 10° ENE
Cosmos 1025 Rocket 3.0 20:52:00 10° S 20:56:16 87° W 21:00:33 10° N
Cosmos 2154 Rocket 4.1 20:50:07 10° N 20:56:25 60° E 21:02:38 10° SSE
Hubble Space Telescope 2.0 20:53:30 10° SW 20:56:52 24° S 20:58:52 17° SE
Intercosmos 24 3.9 20:53:31 10° N 20:57:00 51° E 21:00:06 14° SSE
CENTAUR R/B 4.3 20:49:37 10° NW 20:57:01 40° WSW 21:04:40 10° S
PSLV R/B 4.0 20:56:11 10° W 20:59:06 36° SSW 21:00:55 18° SSE
Aureole 3 Rocket 4.5 20:53:33 10° SSW 20:59:12 47° W 21:03:19 10° N
SAR-Lupe-4 3.5 20:55:57 12° SSE 20:59:17 74° ENE 21:02:53 10° N
CZ-3A R/B 1.1 20:55:08 10° SW 21:00:52 70° NW 21:02:57 10° NE
Cosmos 1606 Rocket 3.8 20:57:47 10° N 21:01:59 48° E 21:05:12 16° SSE
Cosmos 1939 Rocket 2.7 20:59:12 10° SSE 21:03:02 89° NE 21:06:55 10° NNW
Okean 1-7 Rocket 4.2 21:00:30 10° SSW 21:04:54 61° W 21:09:24 10° N
ERS-1 Rocket 3.5 21:01:25 16° SE 21:05:08 43° ENE 21:09:53 10° N
CZ-3B Rocket 4.1 21:02:14 10° SSW 21:05:33 17° SSE 21:07:46 16° SE
YAOGAN 6 2.5 21:07:42 19° SSE 21:10:02 63° ENE 21:13:31 10° N
Cosmos 1726 Rocket 3.8 21:05:53 10° N 21:10:04 49° E 21:12:49 20° SSE
COSMOS 2487 2.4 21:06:52 10° SSW 21:10:26 88° ESE 21:14:00 10° NNE
ASTEX 1 3.3 21:06:15 10° S 21:11:08 80° E 21:16:01 10° N
Cosmos 1452 Rocket 4.4 21:07:00 10° N 21:11:46 33° ENE 21:14:43 20° ESE
Cosmos 405 4.0 21:09:48 10° NNW 21:13:12 44° W 21:16:33 10° SSW
Tiangong 2 3.2 21:11:47 10° NW 21:14:28 24° N 21:17:10 10° ENE
SAR-Lupe-1 4.1 21:12:36 16° S 21:15:25 78° WSW 21:19:00 10° NNW
USA 245 4.4 21:29:30 14° NE 21:29:30 14° NE 21:30:16 10° NNE
Cosmos 2082 Rocket 2.2 21:23:02 10° SSW 21:28:43 90° ESE 21:34:25 10° NNE
Cosmos 2058 Rocket 3.0 21:30:59 10° N 21:35:26 72° E 21:37:33 30° SSE
Cosmos 2341 Rocket 4.0 21:29:11 10° N 21:35:35 90° E 21:40:31 18° S
Cosmos 2278 3.7 21:30:05 10° NNW 21:35:48 85° WSW 21:39:15 25° SSE
Cosmos 1656 3.7 21:30:47 10° NNW 21:36:15 68° ENE 21:39:02 29° SE
Cosmos 468 4.5 21:32:43 12° S 21:37:29 66° ESE 21:42:43 10° NNE
Timation 2 Rocket 4.0 21:31:26 10° S 21:37:45 62° ESE 21:43:49 10° NNE
Cosmos 2218 Rocket 4.3 21:34:32 10° N 21:40:30 49° E 21:43:21 29° SE
SL-08 RB Rocket 4.2 21:42:05 33° ESE 21:43:23 42° ENE 21:47:36 10° N
MetOp-A 4.1 21:40:40 27° SSE 21:43:38 79° ENE 21:49:00 10° N
Terra 3.6 21:43:04 16° E 21:44:04 17° ENE 21:47:09 10° NNE
H-2A R/B 4.1 21:45:17 15° ENE 21:46:00 16° ENE 21:48:42 10° NNE
Lacrosse 5 rocket 4.3 21:44:54 10° N 21:46:07 11° NNE 21:47:19 10° NE
Cosmos 1697 Rocket 2.9 21:40:37 10° NNW 21:46:09 57° ENE 21:48:27 33° SE
YAOGAN 11 4.0 21:49:33 42° SSE 21:50:54 73° ENE 21:55:14 10° N
SL-24 DEB 4.1 21:49:04 35° SSE 21:51:01 82° E 21:55:40 10° N
Cosmos 1626 Rocket 3.4 21:54:10 47° SSE 21:55:12 65° E 21:59:29 10° NNE
Cosmos 2369 4.2 21:51:35 10° NNW 21:57:10 55° WSW 22:00:14 26° S
Cosmos 1833 Rocket 3.4 21:51:48 10° SW 21:57:16 55° WNW 22:02:49 10° NNE
Cosmos 2181 Rocket 4.5 21:52:51 10° SSW 21:59:06 60° W 22:05:18 10° N
Cosmos 921 Rocket 4.2 21:55:25 10° NNW 21:59:32 38° W 22:01:40 23° SSW
SL-16 R/B 4.1 21:56:14 10° NNE 21:59:33 16° NE 22:01:37 13° ENE
TELKOM 3 3.9 21:57:13 10° NW 21:59:15 59° NW 21:59:15 59° NW
Cosmos 2228 3.2 21:56:34 10° NNW 22:00:49 66° W 22:02:16 38° SSW
Meteor 1-22 Rocket 4.2 21:57:15 10° N 22:02:34 59° E 22:04:07 43° SE
SPOT 5 2.5 22:05:12 52° S 22:06:13 85° WSW 22:10:38 10° NNW
Cosmos 864 Rocket 4.4 22:06:05 10° N 22:12:21 75° E 22:14:34 42° SSE
Cosmos 1271 Rocket 3.6 22:13:23 10° N 22:16:36 39° NE 22:16:36 39° NE
H-2A R/B 1.9 22:16:12 56° SE 22:17:14 76° ENE 22:22:19 10° N
Cosmos 1842 3.9 22:18:35 45° NE 22:18:35 45° NE 22:21:40 10° NNE
Lacrosse 5 1.9 22:18:42 54° ESE 22:18:42 54° ESE 22:23:15 10° NE
ARGOS 3.6 22:24:41 36° SSW 22:26:40 54° W 22:31:59 10° NNW
Cosmos 1602 Rocket 4.3 22:30:42 36° SW 22:31:53 46° W 22:36:03 10° N
Cosmos 2360 Rocket 4.5 22:32:21 10° NNE 22:34:24 12° NE 22:36:19 10° ENE
Meteor 2-8 Rocket 4.5 22:34:39 54° SE 22:35:30 58° E 22:41:31 10° NNE
Cosmos 1420 Rocket 4.3 22:30:53 10° NNW 22:36:01 59° WSW 22:36:56 51° SW
Cosmos 1980 Rocket 2.0 22:30:39 10° NNW 22:36:19 89° ENE 22:37:10 66° SSE
Hubble Space Telescope 3.4 22:34:04 10° WSW 22:34:15 11° WSW 22:34:15 11° WSW
Cosmos 2366 rocket 4.3 22:33:36 10° NNW 22:39:38 61° W 22:41:47 39° SSW
Meteor 1-4 Rocket 4.4 22:39:22 10° NW 22:42:08 24° W 22:42:08 24° W
Cosmos 1110 Rocket 4.5 22:40:44 10° N 22:45:45 46° ENE 22:45:47 46° ENE
IGS 5A 3.9 22:46:56 56° NNE 22:46:56 56° NNE 22:50:21 10° N
SL-19 R/B 3.9 22:41:41 10° NNE 22:46:57 80° ESE 22:47:09 78° SE
ATLAS CENTAUR R/B 3.1 22:44:19 10° N 22:46:29 22° NNE 22:46:29 22° NNE
Cosmos 2322 Rocket 2.9 22:44:13 10° N 22:49:33 39° ENE 22:50:04 38° ENE
NOSS 3-1 (C) 4.5 22:43:49 10° NNW 22:51:18 53° NE 22:54:11 38° ESE
Tiangong 2 3.7 22:48:23 10° WNW 22:49:34 20° NW 22:49:34 20° NW
Cosmos 389 Rocket 4.5 22:51:30 10° N 22:53:06 25° N 22:53:06 25° N
deb Chang Zheng 4 4.0 22:50:58 10° NNE 22:54:32 60° N 22:54:32 60° N
CARTOSAT-1 4.0 22:57:52 61° NW 22:57:52 61° NW 23:01:31 10° NNW
Cosmos 1953 3.4 23:00:30 10° N 23:03:17 42° N 23:03:17 42° N
CZ-4 R/B 3.9 23:00:23 10° NNE 23:05:07 79° N 23:05:07 79° N
Cosmos 1470 4.5 23:12:05 10° N 23:14:16 30° NNE 23:14:16 30° NNE
Cosmos 1934 Rocket 4.0 23:12:17 10° N 23:18:36 65° E 23:18:42 65° E
USA 229 DEB 4.1 23:12:38 10° NW 23:19:35 54° WSW 23:20:30 51° SW
USA 229 4.0 23:12:43 10° NW 23:19:41 54° WSW 23:20:36 51° SW
Cosmos 2251 Rocket 3.7 23:20:44 72° NW 23:20:44 72° NW 23:25:55 10° NNE
Terra 2.7 23:21:57 42° W 23:21:57 42° W 23:25:57 10° NNW
H-2A R/B 3.2 23:22:24 40° WNW 23:22:24 40° WNW 23:25:56 10° NNW
Lacrosse 5 rocket 2.7 23:21:53 10° NNW 23:25:29 42° N 23:25:29 42° N
NOSS 3-1 (A) 4.2 23:18:49 10° NNW 23:26:30 65° NE 23:28:29 51° ESE
Cosmos 972 Rocket 4.3 23:24:29 10° NNW 23:28:34 58° NNW 23:28:34 58° NNW
CZ-4B R/B 4.0 23:28:39 10° N 23:33:38 55° WNW 23:33:38 55° WNW
Cosmos 2098 Rocket 4.0 23:38:39 10° N 23:43:14 62° NE 23:43:14 62° NE
SL-16 R/B 2.5 23:38:34 10° NNW 23:43:28 63° WNW 23:43:28 63° WNW
